#timestamp,LO_Frequency,Hit,StdDev 
1578729615.1,286046999.5,N
1578729635.9,286046999.6,N
1578729655.7,286046997.6,N
1578729675.5,286046995.2,N
1578729695.4,286046995.0,N
1578729715.2,286046998.0,N
1578729735.0,286046997.6,N
1578729735.9,286046997.6,N
1578729755.8,286046994.9,N
1578729775.6,286046997.1,N
1578729795.5,286046996.7,N
1578729815.3,286046996.7,N
1578729835.1,286046996.6,N
1578729855.9,286046994.9,N
1578729875.7,286046996.3,N
1578729895.5,286046997.8,N
1578729915.4,286046995.3,N
1578729935.2,286046997.4,N
1578729955.1,286046999.6,N
1578729956.0,286046999.6,N
1578729975.8,286046997.2,N
1578729995.6,286046999.0,N
1578730015.5,286046996.9,N
1578730035.3,286046999.3,N
1578730055.1,286046997.2,N
1578730075.9,286046996.7,N
1578730095.7,286046999.4,N
1578730115.6,286046996.9,N
1578730135.4,286046997.2,N
1578730155.2,286046999.2,N
1578730175.1,286046999.1,N
1578730176.0,286046999.1,N
1578730195.8,286046998.3,N
1578730215.6,286046998.8,N
1578730235.5,286046998.9,N
1578730255.3,286046998.5,N
1578730275.2,286046998.9,N
1578730295.9,286046999.9,N
1578730315.7,286047001.0,N
1578730335.6,286046997.0,N
1578730355.4,286046994.9,Y
1578730375.2,286047001.0,P
1578730395.1,286046998.1,N
1578730396.0,286046998.1,N
1578730415.8,286047001.0,N
1578730435.7,286047000.5,N
1578730455.5,286047000.6,N
1578730475.3,286047001.2,N
1578730495.2,286046998.4,N
1578730515.9,286046997.0,N
1578730535.7,286046997.2,N
1578730555.6,286046995.8,N
1578730575.4,286046993.3,Y
1578730595.3,286046995.4,P
1578730615.1,286046997.2,N
1578730616.0,286046997.2,N
1578730635.8,286046996.9,N
1578730655.7,286046996.5,Y
1578730675.5,286047001.0,P
1578730695.3,286047000.4,N
1578730715.2,286047002.7,N
1578730735.0,286047004.3,N
1578730735.9,286047004.3,N
1578730755.8,286047001.5,N
1578730775.6,286047000.2,N
1578730795.4,286047002.5,N
1578730815.3,286047011.9,Y
1578730835.1,286047000.7,P
1578730855.9,286046998.3,P
1578730875.7,286046998.3,N
1578730895.5,286047001.1,N
1578730915.4,286047001.0,N
1578730935.2,286046998.8,N
1578730955.0,286046998.3,N
1578730955.9,286046998.3,N
1578730975.8,286047002.8,N
1578730995.6,286046999.9,N
1578731015.5,286047000.7,N
1578731035.3,286047000.8,N
1578731055.1,286047000.7,N
1578731075.9,286046998.2,N
1578731095.7,286046997.4,N
1578731115.5,286046998.5,N
1578731135.4,286047002.8,N
1578731155.2,286046998.3,N
1578731175.0,286046998.9,N
1578731175.9,286046998.9,N
1578731195.8,286046996.6,N
1578731215.6,286046998.7,N
1578731235.5,286047000.5,N
1578731255.3,286047001.0,N
1578731275.1,286046999.8,N
1578731295.9,286047000.7,N
1578731315.7,286046996.6,N
1578731335.5,286046998.6,N
1578731355.4,286047001.1,N
1578731375.2,286047000.5,N
1578731395.1,286046998.4,N
1578731396.0,286046998.4,N
1578731415.8,286046998.4,N
1578731435.6,286046998.7,N
1578731455.5,286046999.4,N
1578731475.3,286047001.2,N
1578731495.1,286046998.8,N
1578731515.9,286047000.8,N
1578731535.7,286047001.9,N
1578731555.6,286046999.7,N
1578731575.4,286047002.7,N
1578731595.2,286046998.2,N
1578731615.1,286047002.5,N
1578731616.0,286047002.5,N
1578731635.8,286047002.0,N
1578731655.7,286047002.5,N
1578731675.5,286047002.2,N
1578731695.3,286047002.8,N
1578731715.2,286047002.2,N
1578731735.0,286047001.7,N
1578731735.9,286047001.7,N
1578731755.8,286047002.4,N
1578731775.6,286047002.0,N
1578731795.4,286047000.1,N
1578731815.3,286047002.4,N
1578731835.1,286046999.7,N
1578731855.8,286047000.3,N
1578731875.7,286046999.9,N
1578731895.5,286047000.2,N
1578731915.4,286047002.5,N
1578731935.2,286047001.7,N
1578731955.0,286047002.1,N
1578731955.9,286047002.1,N
1578731975.8,286047001.8,N
1578731995.6,286047002.7,N
1578732015.5,286047003.8,Y
1578732035.3,286047004.3,P
1578732055.1,286047002.2,N
1578732075.9,286047002.0,N
1578732095.7,286047002.2,N
1578732115.5,286047000.2,N
1578732135.4,286047002.8,N
1578732155.2,286047001.8,N
1578732175.1,286047003.5,Y
1578732176.0,286047003.5,P
1578732195.8,286047000.6,N
1578732215.6,286047000.0,N
1578732235.5,286047002.8,N
1578732255.3,286046998.4,N
1578732275.2,286046998.3,N
1578732295.9,286046998.8,N
1578732315.7,286046998.8,N
1578732335.6,286046998.3,N
1578732355.4,286046998.7,N
1578732375.2,286047001.1,N
1578732395.1,286046996.9,N
1578732396.0,286046996.9,N
1578732415.8,286046999.4,N
1578732435.7,286046998.5,N
1578732455.5,286047001.1,N
1578732475.3,286047000.9,N
1578732495.2,286046999.1,N
1578732515.0,286046997.9,N
1578732515.9,286046997.9,N
1578732535.7,286046997.1,N
1578732555.6,286046996.7,N
1578732575.4,286046996.5,N
1578732595.3,286046995.5,N
1578732615.1,286046995.3,N
1578732616.0,286046995.3,N
1578732635.8,286046995.6,N
1578732655.7,286046997.3,N
1578732675.5,286046993.4,Y
1578732695.3,286046997.1,P
1578732715.2,286046997.2,P
1578732735.0,286046996.6,P
1578732735.9,286046996.6,Y
1578732755.8,286047000.1,P
1578732775.6,286047001.2,N
1578732795.4,286046999.3,N
1578732815.3,286046999.0,N
1578732835.1,286046998.2,N
1578732855.8,286047000.3,N
1578732875.7,286046998.2,N
1578732895.5,286046999.0,N
1578732915.4,286046999.5,N
1578732935.2,286046999.0,N
1578732955.0,286046999.2,N
1578732955.9,286046999.2,N
1578732975.8,286046999.2,N
1578732995.6,286046999.5,N
1578733015.4,286046997.7,N
1578733035.3,286046995.4,Y
1578733055.1,286046996.3,P
1578733075.9,286046995.1,P
1578733095.7,286046997.2,N
1578733115.5,286046996.9,N
1578733135.4,286046999.5,N
1578733155.2,286046998.0,N
1578733175.0,286046994.9,Y
1578733176.0,286046994.9,P
1578733195.8,286046999.2,N
